Terug naar catalogus

ARIANE 1 DEB

ActiefHEO
NORAD 25768·DEBRIS·🇫🇷 France

Gelanceerd Dec 24, 1979 vanaf Guiana Space Centre

Loading…

Volgende Passages (komende 24 uur)

TLE

VerouderendSource: Space-Track

Epoch: Aug 28, 2026, 23:54 UTC

1 25768U 79104K   26240.99613933 -.00000301  00000-0 -27205-2 0  9990
2 25768  17.6715 129.7795 5191919 232.5014  10.4858  4.81746593247410

Volg ARIANE 1 DEB in realtime met AllMySat

Download on the App Store